This demonstration page uses our WeatherBlox Daily Observations layout. Learn more.

Left ArrowRight Arrow

39.51506, -84.39828

Hourly Observations for May 9, 2019

Temp ( °F °C ) Dew Point ( °F °C ) Humidity (%) Winds ( mph kmh ) Pressure ( in mb ) Visibility ( mi km ) Precip ( " mm )
12:15 am 00:15 Clear 71 21.9 58 14.6 63 63 SSE 6 9 29.90 1013 10 16 N/A
12:35 am 00:35 Clear 71 21.8 58 14.6 64 64 SSE 6 9 29.90 1013 10 16 N/A
12:55 am 00:55 Hazy 71 21.6 58 14.7 65 65 S 6 9 29.90 1013 7 11 N/A
1:15 am 01:15 Clear 71 21.4 58 14.7 66 66 SSE 8 13 29.89 1012 10 16 N/A
1:35 am 01:35 Clear 71 21.6 58 14.7 65 65 SSE 7 11 29.89 1012 10 16 N/A
1:55 am 01:55 Clear 70 21.3 58 14.6 66 66 SSE 8 13 29.89 1012 10 16 N/A
2:15 am 02:15 Clear 70 21 58 14.7 67 67 SSE 6 9 29.89 1012 10 16 N/A
2:35 am 02:35 Clear 69 20.8 58 14.7 68 68 SSE 7 11 29.88 1012 10 16 N/A
2:55 am 02:55 Clear 69 20.6 58 14.7 69 69 SSE 6 9 29.88 1012 10 16 N/A
3:15 am 03:15 Clear 69 20.5 59 14.8 70 70 SSE 3 6 29.87 1012 10 16 N/A
3:35 am 03:35 Clear 65 18.3 59 15 81 81 N N/A 29.88 1012 10 16 N/A
3:55 am 03:55 Clear 67 19.6 59 14.9 74 74 N N/A 29.88 1012 10 16 N/A
4:15 am 04:15 Clear 63 17.3 59 15 86 86 N N/A 29.88 1012 10 16 N/A
4:35 am 04:35 Clear 70 21.2 60 15.5 70 70 S 7 11 29.86 1011 10 16 N/A
4:55 am 04:55 Partly Cloudy 70 21.2 60 15.5 70 70 S 10 17 29.85 1011 10 16 N/A
5:15 am 05:15 Clear 71 21.8 60 15.7 68 68 S 12 19 29.85 1011 10 16 N/A
5:35 am 05:35 Clear 71 21.8 60 15.7 68 68 S 13 20 29.85 1011 10 16 N/A
5:55 am 05:55 Clear 71 21.8 60 15.8 69 69 SSW 10 17 29.85 1011 10 16 N/A
6:15 am 06:15 Clear 71 21.7 60 15.8 69 69 SSW 13 20 29.84 1011 10 16 N/A
6:35 am 06:35 Sunny 71 21.9 61 15.9 69 69 S 14 22 29.83 1010 10 16 N/A
6:55 am 06:55 Sunny 71 21.9 61 15.9 69 69 SSW 13 20 29.84 1011 10 16 N/A
7:15 am 07:15 Sunny 72 22 61 16 69 69 S 13 20 29.84 1010 10 16 N/A
7:35 am 07:35 Partly Cloudy 72 22.1 61 16 68 68 S 15 24 29.84 1010 10 16 N/A
7:55 am 07:55 Mostly Cloudy 72 22.2 61 16.1 68 68 S 14 22 29.84 1010 10 16 N/A
8:15 am 08:15 Partly Cloudy 72 22.3 61 16.1 68 68 S 16 26 29.84 1010 10 16 N/A
8:35 am 08:35 Cloudy 72 22.3 61 16.1 68 68 S 16 26 29.84 1010 10 16 N/A
8:55 am 08:55 Cloudy 72 22.3 61 16.2 69 69 SSW 13 20 29.84 1010 10 16 N/A
9:15 am 09:15 Mostly Cloudy 71 21.8 62 16.7 73 73 S 18 30 29.82 1010 10 16 N/A
9:35 am 09:35 Mostly Cloudy 72 22.1 63 17.1 73 73 S 20 31 29.82 1010 10 16 N/A
9:55 am 09:55 Cloudy 72 22.3 63 17.1 73 73 SSW 22 35 29.82 1010 10 16 N/A
10:15 am 10:15 Cloudy with Light Rain 70 21.3 64 17.7 80 80 SSW 16 26 29.82 1010 7 11 N/A
10:35 am 10:35 Cloudy with Light Rain 70 21.3 64 17.8 81 81 SSW 16 26 29.82 1010 10 16 N/A
10:55 am 10:55 Cloudy with Rain 70 21.1 65 18.1 83 83 SW 13 20 29.82 1010 7 11 N/A
11:15 am 11:15 Cloudy with Light Rain 68 20 66 18.7 92 92 WSW 12 19 29.84 1011 7 11 0.08 2.03
11:35 am 11:35 Cloudy 70 21.1 67 19.4 90 90 WSW 9 15 29.84 1011 10 16 0.08 2.03
11:55 am 11:55 Cloudy 72 22.2 68 20 87 87 WSW 10 17 29.85 1011 10 16 0.08 2.03
12:15 pm 12:15 Mostly Cloudy 74 23.5 68 19.8 80 80 WSW 17 28 29.85 1011 10 16 N/A
12:35 pm 12:35 Mostly Cloudy 75 23.7 67 19.4 77 77 WSW 13 20 29.85 1011 10 16 N/A
12:55 pm 12:55 Cloudy 75 24 67 19.2 75 75 WSW 13 20 29.85 1011 10 16 N/A
1:15 pm 13:15 Cloudy 76 24.6 66 18.9 71 71 WSW 17 28 29.84 1011 10 16 N/A
1:35 pm 13:35 Partly Cloudy 77 25 64 18 65 65 SW 28 44 29.84 1011 10 16 N/A
1:55 pm 13:55 Cloudy 75 23.7 63 17.3 67 67 WSW 18 30 29.85 1011 10 16 N/A
2:15 pm 14:15 Cloudy 76 24.2 64 17.7 67 67 WSW 13 20 29.85 1011 10 16 N/A
2:35 pm 14:35 Cloudy 75 23.9 64 17.6 68 68 SW 12 19 29.85 1011 10 16 N/A
2:55 pm 14:55 Cloudy 75 23.9 64 17.7 68 68 SW 13 20 29.85 1011 10 16 N/A
3:15 pm 15:15 Cloudy 74 23.5 64 17.5 69 69 WSW 13 20 29.85 1011 10 16 N/A
3:35 pm 15:35 Cloudy 75 23.9 64 17.9 69 69 SW 12 19 29.85 1011 10 16 N/A
4:55 pm 16:55 Cloudy 73 22.6 63 17.4 73 73 WSW 8 13 29.84 1010 10 16 N/A
5:15 pm 17:15 Cloudy 74 23.1 63 17.1 69 69 SW 21 33 29.85 1011 10 16 N/A
5:35 pm 17:35 Mostly Cloudy 74 23.1 63 17 69 69 SW 13 20 29.85 1011 10 16 N/A
5:55 pm 17:55 Cloudy with Light Rain 72 22.2 64 18 77 77 SW 16 26 29.85 1011 10 16 N/A
6:15 pm 18:15 Cloudy with Light Rain 69 20.6 66 18.7 89 89 SW 10 17 29.86 1011 7 11 0.01 0.25
6:35 pm 18:35 Cloudy with Light Rain 69 20.5 64 17.9 85 85 SW 16 26 29.87 1012 10 16 0.02 0.51
6:55 pm 18:55 Cloudy 69 20.5 63 17.4 82 82 SW 9 15 29.87 1012 10 16 0.02 0.51
7:15 pm 19:15 Mostly Cloudy 69 20.6 63 17.2 81 81 SSW 9 15 29.86 1011 10 16 N/A
7:35 pm 19:35 Cloudy 69 20.4 63 17.3 82 82 WSW 8 13 29.87 1012 10 16 N/A
7:55 pm 19:55 Mostly Cloudy 69 20.3 63 17 81 81 SW 6 9 29.86 1011 10 16 N/A
8:15 pm 20:15 Partly Cloudy 68 19.8 63 17.2 85 85 SSW 6 9 29.87 1011 10 16 N/A
8:35 pm 20:35 Mostly Cloudy 68 19.8 63 17.3 86 86 SSW 7 11 29.87 1011 10 16 N/A
8:55 pm 20:55 Cloudy 69 20.3 63 17.3 83 83 S 8 13 29.86 1011 10 16 N/A
9:15 pm 21:15 Mostly Cloudy 68 20.1 64 17.7 86 86 S 10 17 29.86 1011 10 16 N/A
9:35 pm 21:35 Mostly Cloudy 67 19.6 64 17.6 88 88 S 10 17 29.87 1011 10 16 N/A
9:55 pm 21:55 Clear 67 19.4 64 17.5 89 89 S 10 17 29.87 1011 10 16 N/A
10:15 pm 22:15 Partly Cloudy 67 19.3 63 17.4 89 89 SSW 13 20 29.88 1012 10 16 N/A
10:35 pm 22:35 Partly Cloudy 66 19 63 17.3 90 90 S 12 19 29.88 1012 10 16 N/A
10:55 pm 22:55 Partly Cloudy 66 18.7 63 17.3 92 92 SSW 8 13 29.89 1012 10 16 N/A
11:15 pm 23:15 Cloudy 66 18.8 63 17.4 92 92 SSW 10 17 29.89 1012 10 16 N/A
11:35 pm 23:35 Mostly Cloudy 65 18.6 63 17.4 93 93 SSW 7 11 29.89 1012 10 16 N/A
11:55 pm 23:55 Cloudy 66 18.8 64 17.6 93 93 SSW 7 11 29.90 1012 10 16 N/A

Powered by AerisWeather